N7QNM-13 Weather Reports


time (UTC)temp
C
wind
direction
speed
KPH
gust
KPH
rain 1hr
cm
rain 24hr
cm
rain mn
cm
humidity
%
barometer
mb
20260901063040 15 289 1.6 4.8 0.00 0.00 0.00 69 1007.5
20260901062019 15 261 1.6 3.2 0.00 0.00 0.00 69 1007.5
20260901061101 15 23 0.0 1.6 0.00 0.00 0.00 69 1007.6
20260901060019 15 235 3.2 4.8 0.00 0.00 0.00 69 1007.7
20260901055019 15 0.0 0.0 0.00 0.00 0.00 70 1007.8
20260901054021 15 0.0 0.0 0.00 0.00 0.00 71 1007.8
20260901053019 15 0.0 0.0 0.00 0.00 0.00 71 1007.8
20260901052019 15 0.0 0.0 0.00 0.00 0.00 70 1007.9
20260901051019 15 0.0 0.0 0.00 0.00 0.00 70 1007.8
20260901050040 15 0.0 0.0 0.00 0.00 0.00 68 1007.8
20260901045102 15 0.0 0.0 0.00 0.00 0.00 67 1007.8
20260901044042 15 0.0 0.0 0.00 0.00 0.00 64 1007.8
20260901043020 16 0.0 0.0 0.00 0.00 0.00 63 1007.8
20260901042022 16 0.0 0.0 0.00 0.00 0.00 61 1007.8
20260901041020 17 0.0 0.0 0.00 0.00 0.00 57 1007.8
20260901040020 17 0.0 0.0 0.00 0.00 0.00 57 1007.8
20260901035041 17 0.0 0.0 0.00 0.00 0.00 55 1007.7
20260901034022 18 0.0 0.0 0.00 0.00 0.00 54 1007.7
20260901033042 19 0.0 0.0 0.00 0.00 0.00 52 1007.7
20260901032021 20 0.0 0.0 0.00 0.00 0.00 49 1007.6
20260901031021 21 0.0 0.0 0.00 0.00 0.00 45 1007.5
20260901030021 22 195 3.2 4.8 0.00 0.00 0.00 40 1007.4
20260901025021 22 197 1.6 4.8 0.00 0.00 0.00 39 1007.4
20260901024043 23 204 1.6 4.8 0.00 0.00 0.00 41 1007.4
20260901023023 25 186 3.2 3.2 0.00 0.00 0.00 37 1007.4
20260901022022 26 218 1.6 4.8 0.00 0.00 0.00 37 1007.4
20260901021021 27 244 1.6 3.2 0.00 0.00 0.00 37 1007.4
20260901020022 27 231 1.6 6.4 0.00 0.00 0.00 35 1007.3
20260901015043 28 202 1.6 4.8 0.00 0.00 0.00 33 1007.3
20260901014022 28 270 4.8 6.4 0.00 0.00 0.00 34 1007.4
20260901013022 29 266 4.8 6.4 0.00 0.00 0.00 33 1007.5
20260901012024 31 247 3.2 4.8 0.00 0.00 0.00 30 1007.6
20260901011023 32 293 1.6 3.2 0.00 0.00 0.00 26 1007.6
20260901010044 32 290 3.2 4.8 0.00 0.00 0.00 26 1007.6
20260901005024 31 282 4.8 6.4 0.00 0.00 0.00 27 1007.7
20260901004023 30 357 3.2 8.0 0.00 0.00 0.00 25 1007.8
20260901003023 31 10 8.0 11.3 0.00 0.00 0.00 26 1008.0
20260901002024 30 87 3.2 6.4 0.00 0.00 0.00 25 1008.0
20260901001024 30 49 4.8 8.0 0.00 0.00 0.00 26 1008.2
20260901000025 31 25 3.2 4.8 0.00 0.00 0.00 27 1008.4
20260831235023 30 47 3.2 4.8 0.00 0.00 0.00 26 1008.5
20260831234025 30 353 4.8 9.7 0.00 0.00 0.00 25 1008.6
20260831232024 30 9 6.4 12.9 0.00 0.00 0.00 26 1008.9
20260831231025 30 16 3.2 6.4 0.00 0.00 0.00 27 1009.1
20260831230025 30 68 4.8 9.7 0.00 0.00 0.00 27 1009.2
20260831225024 30 52 3.2 4.8 0.00 0.00 0.00 28 1009.4
20260831224024 30 68 3.2 6.4 0.00 0.00 0.00 28 1009.5
20260831223026 29 96 4.8 8.0 0.00 0.00 0.00 28 1009.6
20260831222025 29 127 3.2 6.4 0.00 0.00 0.00 28 1009.8
20260831221025 29 130 4.8 9.7 0.00 0.00 0.00 28 1010.0
20260831220026 28 72 4.8 11.3 0.00 0.00 0.00 30 1010.2
20260831215025 28 7 6.4 11.3 0.00 0.00 0.00 30 1010.3
20260831214026 28 47 4.8 9.7 0.00 0.00 0.00 30 1010.4
20260831213027 28 54 6.4 11.3 0.00 0.00 0.00 30 1010.6
20260831212025 29 351 6.4 8.0 0.00 0.00 0.00 28 1010.7
20260831211107 30 340 4.8 11.3 0.00 0.00 0.00 29 1010.9
20260831210025 30 333 6.4 9.7 0.00 0.00 0.00 29 1010.9
20260831205025 29 335 6.4 9.7 0.00 0.00 0.00 29 1011.1
20260831204026 28 231 4.8 8.0 0.00 0.00 0.00 32 1011.3
20260831203026 28 284 6.4 9.7 0.00 0.00 0.00 32 1011.5
20260831202026 28 354 4.8 9.7 0.00 0.00 0.00 31 1011.7
20260831201026 28 216 3.2 6.4 0.00 0.00 0.00 32 1011.9
20260831200028 27 346 4.8 8.0 0.00 0.00 0.00 33 1012.1
20260831195027 27 283 3.2 6.4 0.00 0.00 0.00 33 1012.2
20260831194028 27 35 4.8 6.4 0.00 0.00 0.00 33 1012.4
20260831193027 27 89 3.2 6.4 0.00 0.00 0.00 35 1012.6
20260831192027 26 141 1.6 6.4 0.00 0.00 0.00 36 1012.9
20260831191027 26 103 4.8 6.4 0.00 0.00 0.00 36 1013.1
20260831190027 26 121 4.8 6.4 0.00 0.00 0.00 36 1013.2
20260831185027 26 144 4.8 8.0 0.00 0.00 0.00 36 1013.4
20260831184028 25 21 3.2 4.8 0.00 0.00 0.00 36 1013.6
20260831183028 25 241 3.2 4.8 0.00 0.00 0.00 37 1013.7
20260831182029 25 164 3.2 4.8 0.00 0.00 0.00 36 1013.7
20260831181027 24 344 3.2 6.4 0.00 0.00 0.00 36 1013.9
20260831180027 23 205 3.2 4.8 0.00 0.00 0.00 37 1014.0
20260831175029 23 284 4.8 8.0 0.00 0.00 0.00 38 1014.2
20260831174029 23 257 4.8 6.4 0.00 0.00 0.00 40 1014.2
20260831173028 22 274 4.8 8.0 0.00 0.00 0.00 42 1014.3
20260831172028 22 286 4.8 6.4 0.00 0.00 0.00 41 1014.4
20260831171028 22 266 4.8 6.4 0.00 0.00 0.00 42 1014.4
20260831170028 22 313 3.2 4.8 0.00 0.00 0.00 42 1014.5
20260831165029 21 272 4.8 6.4 0.00 0.00 0.00 42 1014.6
20260831164030 21 267 1.6 4.8 0.00 0.00 0.00 42 1014.7
20260831163029 20 349 4.8 4.8 0.00 0.00 0.00 44 1014.8
20260831162031 20 288 3.2 4.8 0.00 0.00 0.00 46 1014.9
20260831161030 19 276 1.6 3.2 0.00 0.00 0.00 51 1015.0
20260831160029 17 0.0 0.0 0.00 0.00 0.00 54 1015.1
20260831155031 16 281 1.6 4.8 0.00 0.00 0.00 61 1015.0
20260831154031 15 281 3.2 3.2 0.00 0.00 0.00 63 1015.1
20260831153031 15 270 1.6 3.2 0.00 0.00 0.00 61 1015.1
20260831152031 15 0.0 0.0 0.00 0.00 0.00 60 1015.1
20260831151030 15 0.0 0.0 0.00 0.00 0.00 62 1015.1
20260831150030 15 0.0 0.0 0.00 0.00 0.00 68 1015.2
20260831145050 13 0.0 0.0 0.00 0.00 0.00 78 1015.1
20260831144030 12 0.0 0.0 0.00 0.00 0.00 81 1015.0
20260831143052 11 0.0 0.0 0.00 0.00 0.00 83 1015.0
20260831142032 10 0.0 0.0 0.00 0.00 0.00 85 1015.0
20260831141053 8 0.0 0.0 0.00 0.00 0.00 86 1014.9
20260831140032 7 0.0 0.0 0.00 0.00 0.00 86 1014.9
20260831135032 7 0.0 0.0 0.00 0.00 0.00 86 1014.8
20260831134030 7 0.0 0.0 0.00 0.00 0.00 85 1014.8
20260831133032 6 0.0 0.0 0.00 0.00 0.00 85 1014.8
20260831132031 6 0.0 0.0 0.00 0.00 0.00 85 1014.7
20260831131532 6 0.0 0.0 0.00 0.00 0.00 84 1014.7
20260831130531 6 0.0 0.0 0.00 0.00 0.00 84 1014.7
20260831125531 6 0.0 0.0 0.00 0.00 0.00 84 1014.6
20260831124533 6 0.0 0.0 0.00 0.00 0.00 84 1014.6
20260831123531 6 0.0 0.0 0.00 0.00 0.00 84 1014.5
20260831122532 7 0.0 0.0 0.00 0.00 0.00 84 1014.5
20260831121533 7 0.0 0.0 0.00 0.00 0.00 83 1014.5
20260831120532 7 0.0 0.0 0.00 0.00 0.00 83 1014.5
20260831115552 7 0.0 0.0 0.00 0.00 0.00 82 1014.5
20260831114532 7 0.0 0.0 0.00 0.00 0.00 82 1014.5
20260831113534 7 0.0 0.0 0.00 0.00 0.00 82 1014.4
20260831112532 7 0.0 0.0 0.00 0.00 0.00 82 1014.4
20260831111532 7 0.0 0.0 0.00 0.00 0.00 82 1014.4
20260831110533 7 0.0 0.0 0.00 0.00 0.00 81 1014.4
20260831105532 7 0.0 0.0 0.00 0.00 0.00 81 1014.4
20260831104532 8 0.0 0.0 0.00 0.00 0.00 81 1014.4
20260831103554 8 0.0 0.0 0.00 0.00 0.00 81 1014.3
20260831102554 8 0.0 0.0 0.00 0.00 0.00 81 1014.3
20260831101534 8 0.0 0.0 0.00 0.00 0.00 80 1014.2
20260831100535 8 0.0 0.0 0.00 0.00 0.00 80 1014.3
20260831095533 8 0.0 0.0 0.00 0.00 0.00 79 1014.4
20260831094533 8 0.0 0.0 0.00 0.00 0.00 79 1014.5
20260831093533 8 0.0 0.0 0.00 0.00 0.00 78 1014.6
20260831092533 9 0.0 0.0 0.00 0.00 0.00 77 1014.6
20260831091534 9 0.0 0.0 0.00 0.00 0.00 77 1014.7
20260831090534 9 0.0 0.0 0.00 0.00 0.00 76 1014.7
20260831085534 9 0.0 0.0 0.00 0.00 0.00 76 1014.7
20260831084534 10 0.0 0.0 0.00 0.00 0.00 75 1014.6
20260831083534 10 0.0 0.0 0.00 0.00 0.00 75 1014.6
20260831082534 10 0.0 0.0 0.00 0.00 0.00 74 1014.6
20260831081616 10 0.0 0.0 0.00 0.00 0.00 73 1014.6
20260831080536 10 0.0 0.0 0.00 0.00 0.00 72 1014.7
20260831075535 10 0.0 0.0 0.00 0.00 0.00 71 1014.7
20260831074534 11 0.0 0.0 0.00 0.00 0.00 70 1014.7
20260831073535 11 0.0 0.0 0.00 0.00 0.00 70 1014.7
20260831072556 11 0.0 0.0 0.00 0.00 0.00 70 1014.7
20260831071535 11 0.0 0.0 0.00 0.00 0.00 71 1014.8
20260831070536 11 0.0 0.0 0.00 0.00 0.00 70 1014.8
20260831065535 11 0.0 0.0 0.00 0.00 0.00 70 1014.8
20260831064535 11 0.0 0.0 0.00 0.00 0.00 69 1014.7